• Processing (Info)

  • MPEC 2013-N04 : 2013 NJ

    The following Minor Planet Electronic Circular may be linked-to from your own Web pages, but must not otherwise be redistributed electronically.

    A form allowing access to any MPEC is at the bottom of this page.


    Read MPEC 2013-N03 Read MPEC 2013-N05


    M.P.E.C. 2013-N04                                Issued 2013 July 3, 18:48 UT
    
         The Minor Planet Electronic Circulars contain information on unusual
             minor planets and routine data on comets.  They are published
       on behalf of Commission 20 of the International Astronomical Union by the
              Minor Planet Center, Smithsonian Astrophysical Observatory,
                              Cambridge, MA 02138, U.S.A.
    
                 Prepared using the Tamkin Foundation Computer Network
    
                                  MPC@CFA.HARVARD.EDU
                URL https://www.minorplanetcenter.net/    ISSN 1523-6714
    
                                        2013 NJ
    
    Observations:
         K13N00J* C2013 07 01.31627 16 19 39.761-12 16 58.61         21.2 wLEN004F51
         K13N00J  C2013 07 01.34299 16 19 36.220-12 16 35.94         21.7 wLEN004F51
         K13N00J  C2013 07 01.35631 16 19 34.464-12 16 24.75         21.4 wLEN004F51
         K13N00J KC2013 07 02.16311416 17 57.29 -12 04 42.7          21.7 RqEN004W85
         K13N00J KC2013 07 02.16956816 17 56.47 -12 04 37.5                qEN004W85
         K13N00J KC2013 07 02.17649216 17 55.57 -12 04 31.4          21.9 RqEN004W85
         K13N00J _C2013 07 02.41889316 17 26.775-12 01 32.13         20.7 RtEN004568
         K13N00J _C2013 07 02.42014616 17 26.618-12 01 31.09         20.7 RtEN004568
         K13N00J _C2013 07 02.42140216 17 26.455-12 01 29.99         20.6 RtEN004568
         K13N00J |C2013 07 03.11894 16 16 05.82 -11 51 32.5          21.1 VuEN004807
         K13N00J |C2013 07 03.12563 16 16 04.98 -11 51 27.1          21.1 VuEN004807
         K13N00J |C2013 07 03.13250 16 16 04.13 -11 51 21.3          21.0 VuEN004807
    
    Observer details:
    568 Mauna Kea.  Observers R. J. Wainscoat, M. Micheli, D. Woodworth.  Measurer
        M. Micheli.  3.6-m Canada-France-Hawaii Telescope + CCD.
    807 Cerro Tololo.  Observers T. Linder, R. Holmes.  0.41-m f/11
        Ritchey-Chretien + CCD.
    F51 Pan-STARRS 1, Haleakala.  Observers N. Primak, A. Schultz, S. Watters,
        T. Goggia, K. Chambers.  Measurer PS1 Science Consortium.  1.8-m
        Ritchey-Chretien + CCD.
    W85 Cerro Tololo-LCOGT A.  Observer T. Lister.  1.0-m f/8 Ritchey-Chretien
        + CCD.
    
    Orbital elements:
    2013 NJ                                             PHA, Earth MOID = 0.0069 AU
    Epoch 2013 Apr. 18.0 TT = JDT 2456400.5                 MPC
    M 234.94140              (2000.0)            P               Q
    n   0.67536552     Peri.  140.09059     +0.94305445     -0.32667657
    a   1.2865997      Node   239.08329     +0.28349288     +0.88791677
    e   0.2844805      Incl.    4.19085     +0.17401178     +0.32386144
    P   1.46           H   21.8           G   0.15           U   7
    Residuals in seconds of arc
    130701 F51  0.1+  0.0     130702 W85  0.2+  0.1-    130702 568  0.1-  0.1+
    130701 F51  0.1-  0.1+    130702 W85  0.0   0.1+    130703 807  0.0   0.0
    130701 F51  0.0   0.1-    130702 568  0.1-  0.1+    130703 807  0.1-  0.1-
    130702 W85  0.1+  0.1+    130702 568  0.1-  0.0     130703 807  0.1+  0.0
    
    Ephemeris:
    2013 NJ                  a,e,i = 1.29, 0.28, 4                   q = 0.9206
    Date    TT    R. A. (2000) Decl.     Delta      r     Elong.  Phase     V
    2013 06 03    17 22 44.0 -19 06 47   0.3977  1.4080   170.3     6.9    21.1
    ...
    2013 06 18    16 49 44.2 -15 37 06   0.3428  1.3496   164.7    11.5    20.8
    ...
    2013 06 26    16 31 03.3 -13 34 41   0.3282  1.3166   152.6    20.8    21.0
    ...
    2013 07 02    16 18 17.4 -12 07 09   0.3228  1.2911   143.7    27.8    21.1
    2013 07 03    16 16 19.9 -11 53 19   0.3223  1.2868   142.3    28.9    21.2
    2013 07 04    16 14 25.8 -11 39 46   0.3219  1.2825   140.8    30.0    21.2
    ...
    2013 07 10    16 04 21.3 -10 25 03   0.3212  1.2563   132.5    36.6    21.3
    ...
    2013 07 18    15 54 52.6 -09 05 28   0.3234  1.2208   122.5    44.6    21.5
    ...
    2013 08 02    15 49 09.8 -07 37 00   0.3292  1.1534   106.7    57.4    21.8
    
    A. U. Tomatic                (C) Copyright 2013 MPC           M.P.E.C. 2013-N04
    

    Read MPEC 2013-N03 Read MPEC 2013-N05


    MPEC number:

    Enter an MPEC number in one of the following forms:

    • 1997-B01 (the full form)
    • J97B01 (the packed version of the full form)
    • B01 (the abbreviated form)